ARIANE 44LP DEB, 25541

Orbit data source: Space-Track

ARIANE 44LP DEB, 25541 is space debris in HEO originally from a launch on Sun, 11 Dec 1988 UTC launched from the French Guiana (FRGUI). Debris objects in space refer to the collection of defunct objects orbiting the Earth. Examples of debris include non-operational satellites, rocket bodies, and fragments generated from explosions, collisions, or faulty payload assembly.

Loading next visibility...
Identifier
25541, 1988-109H
Orbit
HEO
Last TLE update
19 hours ago
Origin
Manufacturer
Unknown
Mission
Spacecraft
Bus & Motor
Unknown
Mass
Unknown
Launch date (UTC)
1988-12-11 (37 years ago)
Launch vehicle
Unknown
Launch site
French Guiana (FRGUI)
Object type
Payload
Rocket body
Debris
Shape & HBR
Unknown
Radar Cross Section
Medium (>0.1 m² and <1 m²)

Expand to show TLE details & history

TLE from 19 hours ago
0 ARIANE 44LP DEB
1 25541U 88109H   25183.80326228  .00000246  00000-0  29227-2 0  9999
2 25541   7.2705 308.3463 7070548 276.1408  14.5274  2.40193453229036
Epoch: 2025-07-02T19:16Z
TLE epoch observation values (Epoch: 2025-07-02T19:16:41.86Z)
Latitude
0.00001°
Longitude
98.24993°
Altitude
4,591.679 km
Speed
7.466 km/s
True Right ascension
20h 34m 00s
True Declination
0° 00' 00"
Sunlit
Object was in full shadow at epoch
Visualization orbit readout
Latitude
2.87523°
Longitude
-105.18648°
Altitude
11,839.766 km
Speed
5.18 km/s
Apparent Right ascension
08h 02m 31s
Apparent Declination
-9° 59' 39"
Sunlit
Object is in daylight
Visualization observer readout
Local Sidereal Time
01:43:48
Azimuth
94.75° ESE
Elevation
-9.961°
Doppler factor
1
Orbital elements
Apogee altitude
33,835.248 km
Perigee altitude
522.824 km
Semi-major axis
23,557.173 km
Eccentricity
0.70705
Inclination
7.2705°
RAAN
308.3463°
Arg. of periapsis
276.1408°
True anomaly
Unknown
Mean anomaly
14.5274°
Eccentric anomaly
Unknown
Mean motion
0.60029 °/min
Orbital period
599.71 mins
BSTAR
0.0029227
Loading maneuver chart data...
Loading SW <> Apogee altitude chart data...
Loading historical data...
Loading historical data...
Loading historical data...
Loading historical data...
Loading historical data...
Loading historical data...
Loading historical data...

ARIANE 44LP DEB Visibility forecast

Observer location: undefined°, undefined°

Span
Click to sort rows by Start time (UTC) header in descending order
Start Az.
Max El. time (UTC)
Max El. Az.
Max El.
End time (UTC)
End Az.
228 mins2025-07-03 16:13:54.110Z254.848° W2025-07-03 17:34:54.110Z253.871° W17.669°2025-07-03 20:01:54.110Z263.189° W
157 mins2025-07-04 11:19:54.110Z222.356° SW2025-07-04 13:56:54.110Z179.227° S37.785°2025-07-04 13:56:54.110Z179.227° S
|